| time (UTC) | temp F | wind direction | speed MPH | gust MPH | rain 1hr in | rain 24hr in | rain mn in | humidity % | barometer mb |
| 20260831222321 | 80 | 125 | 2.0 | 3.0 | 0.00 | 0.00 | 0.00 | 76 | 1019.2 |
| 20260831221821 | 80 | 215 | 0.0 | 0.0 | 0.00 | 0.00 | 0.00 | 76 | 1019.2 |
| 20260831221317 | 80 | 223 | 0.0 | 0.0 | 0.00 | 0.00 | 0.00 | 75 | 1019.1 |
| 20260831220812 | 79 | 223 | 0.0 | 0.0 | 0.00 | 0.00 | 0.00 | 75 | 1019.2 |
| 20260831220307 | 79 | 218 | 0.0 | 0.0 | 0.00 | 0.00 | 0.00 | 76 | 1019.2 |
| 20260831215802 | 79 | 261 | 0.0 | 1.0 | 0.00 | 0.00 | 0.00 | 76 | 1019.3 |
| 20260831215258 | 80 | 239 | 1.0 | 2.0 | 0.00 | 0.00 | 0.00 | 74 | 1019.3 |
| 20260831214754 | 80 | 228 | 1.0 | 2.0 | 0.00 | 0.00 | 0.00 | 77 | 1019.4 |
| 20260831214251 | 80 | 273 | 2.0 | 2.0 | 0.00 | 0.00 | 0.00 | 78 | 1019.4 |
| 20260831213746 | 81 | 239 | 1.0 | 2.0 | 0.00 | 0.00 | 0.00 | 79 | 1019.1 |
| 20260831213238 | 81 | 255 | 3.0 | 3.0 | 0.00 | 0.00 | 0.00 | 77 | 1018.9 |
| 20260831212738 | 82 | 230 | 3.0 | 5.0 | 0.00 | 0.00 | 0.00 | 75 | 1018.7 |
| 20260831212235 | 82 | 237 | 3.0 | 7.0 | 0.00 | 0.00 | 0.00 | 73 | 1018.3 |
| 20260831211732 | 82 | 248 | 4.0 | 8.0 | 0.00 | 0.00 | 0.00 | 72 | 1018.4 |
| 20260831211228 | 83 | 215 | 5.0 | 7.0 | 0.00 | 0.00 | 0.00 | 71 | 1018.2 |
| 20260831210722 | 84 | 221 | 6.0 | 8.0 | 0.00 | 0.00 | 0.00 | 69 | 1018.1 |
| 20260831210219 | 84 | 215 | 6.0 | 8.0 | 0.00 | 0.00 | 0.00 | 66 | 1017.9 |
| 20260831205718 | 85 | 235 | 3.0 | 7.0 | 0.00 | 0.00 | 0.00 | 66 | 1017.9 |
| 20260831205215 | 85 | 247 | 4.0 | 5.0 | 0.00 | 0.00 | 0.00 | 68 | 1017.8 |
| 20260831204714 | 84 | 238 | 4.0 | 6.0 | 0.00 | 0.00 | 0.00 | 68 | 1018.0 |
| 20260831204214 | 85 | 254 | 6.0 | 7.0 | 0.00 | 0.00 | 0.00 | 65 | 1017.9 |
| 20260831203708 | 84 | 255 | 4.0 | 6.0 | 0.00 | 0.00 | 0.00 | 69 | 1017.9 |
| 20260831203202 | 84 | 237 | 4.0 | 5.0 | 0.00 | 0.00 | 0.00 | 73 | 1018.0 |
| 20260831202700 | 84 | 209 | 5.0 | 7.0 | 0.00 | 0.00 | 0.00 | 73 | 1017.8 |
| 20260831202155 | 84 | 227 | 5.0 | 7.0 | 0.00 | 0.00 | 0.00 | 71 | 1017.9 |
| 20260831201654 | 85 | 249 | 7.0 | 10.0 | 0.00 | 0.00 | 0.00 | 68 | 1017.9 |
| 20260831201149 | 85 | 218 | 9.0 | 10.0 | 0.00 | 0.00 | 0.00 | 69 | 1017.9 |
| 20260831200645 | 85 | 229 | 4.0 | 8.0 | 0.00 | 0.00 | 0.00 | 70 | 1018.0 |
| 20260831200144 | 84 | 219 | 6.0 | 8.0 | 0.00 | 0.00 | 0.00 | 69 | 1017.8 |
| 20260831195640 | 83 | 219 | 7.0 | 9.0 | 0.00 | 0.00 | 0.00 | 69 | 1018.1 |
| 20260831195135 | 84 | 234 | 6.0 | 8.0 | 0.00 | 0.00 | 0.00 | 69 | 1018.0 |
| 20260831194630 | 84 | 243 | 5.0 | 7.0 | 0.00 | 0.00 | 0.00 | 72 | 1018.1 |
| 20260831194126 | 83 | 244 | 5.0 | 8.0 | 0.00 | 0.00 | 0.00 | 71 | 1018.4 |
| 20260831193620 | 83 | 240 | 5.0 | 11.0 | 0.00 | 0.00 | 0.00 | 71 | 1018.3 |
| 20260831193116 | 83 | 228 | 4.0 | 6.0 | 0.00 | 0.00 | 0.00 | 74 | 1018.2 |
| 20260831192610 | 84 | 234 | 5.0 | 10.0 | 0.00 | 0.00 | 0.00 | 71 | 1018.3 |
| 20260831192106 | 84 | 216 | 4.0 | 8.0 | 0.00 | 0.00 | 0.00 | 72 | 1018.3 |
| 20260831191602 | 84 | 256 | 6.0 | 10.0 | 0.00 | 0.00 | 0.00 | 71 | 1018.5 |
| 20260831191057 | 84 | 242 | 9.0 | 10.0 | 0.00 | 0.00 | 0.00 | 71 | 1018.5 |
| 20260831190552 | 84 | 239 | 4.0 | 9.0 | 0.00 | 0.00 | 0.00 | 72 | 1018.5 |
| 20260831190050 | 83 | 253 | 7.0 | 9.0 | 0.00 | 0.00 | 0.00 | 72 | 1018.4 |
| 20260831185547 | 83 | 232 | 5.0 | 8.0 | 0.00 | 0.00 | 0.00 | 73 | 1018.3 |
| 20260831185043 | 82 | 240 | 6.0 | 9.0 | 0.00 | 0.00 | 0.00 | 71 | 1018.3 |
| 20260831184542 | 83 | 246 | 11.0 | 13.0 | 0.00 | 0.00 | 0.00 | 70 | 1018.1 |
| 20260831184038 | 83 | 203 | 9.0 | 10.0 | 0.00 | 0.00 | 0.00 | 72 | 1018.0 |
| 20260831183537 | 84 | 219 | 5.0 | 9.0 | 0.00 | 0.00 | 0.00 | 73 | 1018.1 |
| 20260831183037 | 84 | 209 | 5.0 | 9.0 | 0.00 | 0.00 | 0.00 | 72 | 1018.0 |
| 20260831182531 | 85 | 233 | 6.0 | 9.0 | 0.00 | 0.00 | 0.00 | 72 | 1018.2 |
| 20260831182027 | 83 | 238 | 6.0 | 8.0 | 0.00 | 0.00 | 0.00 | 74 | 1018.6 |
| 20260831181526 | 82 | 231 | 3.0 | 5.0 | 0.00 | 0.00 | 0.00 | 73 | 1018.7 |
| 20260831181026 | 83 | 207 | 6.0 | 8.0 | 0.00 | 0.00 | 0.00 | 74 | 1018.8 |
| 20260831180521 | 82 | 219 | 4.0 | 7.0 | 0.00 | 0.00 | 0.00 | 74 | 1018.9 |
| 20260831180016 | 82 | 223 | 4.0 | 7.0 | 0.00 | 0.00 | 0.00 | 74 | 1019.2 |
| 20260831175512 | 82 | 216 | 3.0 | 7.0 | 0.00 | 0.00 | 0.00 | 74 | 1019.2 |
| 20260831175009 | 82 | 220 | 5.0 | 6.0 | 0.00 | 0.00 | 0.00 | 74 | 1019.1 |
| 20260831174503 | 81 | 236 | 3.0 | 5.0 | 0.00 | 0.00 | 0.00 | 75 | 1019.3 |
| 20260831174003 | 81 | 242 | 3.0 | 3.0 | 0.00 | 0.00 | 0.00 | 76 | 1019.4 |
| 20260831173501 | 81 | 232 | 3.0 | 3.0 | 0.00 | 0.00 | 0.00 | 77 | 1019.4 |
| 20260831172957 | 80 | 248 | 3.0 | 5.0 | 0.00 | 0.00 | 0.00 | 77 | 1019.6 |
| 20260831172452 | 80 | 239 | 3.0 | 5.0 | 0.00 | 0.00 | 0.00 | 76 | 1019.4 |
| 20260831171948 | 81 | 236 | 3.0 | 3.0 | 0.00 | 0.00 | 0.00 | 76 | 1019.5 |
| 20260831171443 | 81 | 254 | 4.0 | 5.0 | 0.00 | 0.00 | 0.00 | 77 | 1019.5 |
| 20260831170940 | 81 | 233 | 4.0 | 5.0 | 0.00 | 0.00 | 0.00 | 76 | 1019.5 |
| 20260831170436 | 81 | 231 | 5.0 | 6.0 | 0.00 | 0.00 | 0.00 | 76 | 1019.5 |
| 20260831165933 | 81 | 234 | 3.0 | 5.0 | 0.00 | 0.00 | 0.00 | 76 | 1019.5 |
| 20260831165428 | 81 | 241 | 4.0 | 5.0 | 0.00 | 0.00 | 0.00 | 76 | 1019.8 |
| 20260831164924 | 81 | 231 | 3.0 | 6.0 | 0.00 | 0.00 | 0.00 | 77 | 1019.7 |
| 20260831164420 | 81 | 231 | 4.0 | 6.0 | 0.00 | 0.00 | 0.00 | 77 | 1019.9 |
| 20260831163915 | 81 | 244 | 5.0 | 7.0 | 0.00 | 0.00 | 0.00 | 76 | 1019.9 |
| 20260831163411 | 82 | 229 | 5.0 | 6.0 | 0.00 | 0.00 | 0.00 | 74 | 1019.9 |
| 20260831162909 | 82 | 224 | 4.0 | 7.0 | 0.00 | 0.00 | 0.00 | 73 | 1019.7 |
| 20260831162405 | 82 | 231 | 6.0 | 8.0 | 0.00 | 0.00 | 0.00 | 72 | 1019.6 |
| 20260831161903 | 81 | 243 | 6.0 | 7.0 | 0.00 | 0.00 | 0.00 | 75 | 1019.8 |
| 20260831161400 | 81 | 229 | 5.0 | 7.0 | 0.00 | 0.00 | 0.00 | 76 | 1019.5 |
| 20260831160855 | 81 | 226 | 5.0 | 9.0 | 0.00 | 0.00 | 0.00 | 74 | 1019.6 |
| 20260831160349 | 81 | 241 | 5.0 | 7.0 | 0.00 | 0.00 | 0.00 | 76 | 1019.6 |
| 20260831155845 | 81 | 235 | 4.0 | 7.0 | 0.00 | 0.00 | 0.00 | 75 | 1019.7 |
| 20260831155344 | 80 | 231 | 3.0 | 6.0 | 0.00 | 0.00 | 0.00 | 78 | 1019.8 |
| 20260831154840 | 80 | 233 | 5.0 | 7.0 | 0.00 | 0.00 | 0.00 | 78 | 1019.7 |
| 20260831154337 | 80 | 240 | 5.0 | 7.0 | 0.00 | 0.00 | 0.00 | 77 | 1019.6 |
| 20260831153835 | 80 | 222 | 5.0 | 9.0 | 0.00 | 0.00 | 0.00 | 77 | 1019.6 |
| 20260831153331 | 80 | 237 | 5.0 | 6.0 | 0.00 | 0.00 | 0.00 | 77 | 1019.6 |
| 20260831152827 | 80 | 227 | 5.0 | 6.0 | 0.00 | 0.00 | 0.00 | 76 | 1019.6 |
| 20260831152322 | 79 | 234 | 4.0 | 5.0 | 0.00 | 0.00 | 0.00 | 79 | 1019.7 |
| 20260831151817 | 79 | 232 | 4.0 | 6.0 | 0.00 | 0.00 | 0.00 | 80 | 1019.8 |
| 20260831151316 | 79 | 221 | 5.0 | 8.0 | 0.00 | 0.00 | 0.00 | 78 | 1019.6 |
| 20260831150812 | 79 | 231 | 4.0 | 6.0 | 0.00 | 0.00 | 0.00 | 80 | 1019.5 |
| 20260831150307 | 79 | 240 | 4.0 | 6.0 | 0.00 | 0.00 | 0.00 | 80 | 1019.7 |
| 20260831145806 | 79 | 251 | 5.0 | 7.0 | 0.00 | 0.00 | 0.00 | 79 | 1019.7 |
| 20260831145306 | 79 | 253 | 3.0 | 7.0 | 0.00 | 0.00 | 0.00 | 81 | 1019.6 |
| 20260831144758 | 79 | 217 | 6.0 | 7.0 | 0.00 | 0.00 | 0.00 | 80 | 1019.7 |
| 20260831144254 | 79 | 225 | 4.0 | 7.0 | 0.00 | 0.00 | 0.00 | 80 | 1019.8 |
| 20260831143754 | 79 | 220 | 6.0 | 8.0 | 0.00 | 0.00 | 0.00 | 79 | 1019.7 |
| 20260831143249 | 79 | 229 | 4.0 | 6.0 | 0.00 | 0.00 | 0.00 | 79 | 1019.6 |
| 20260831142744 | 79 | 232 | 5.0 | 7.0 | 0.00 | 0.00 | 0.00 | 78 | 1019.5 |
| 20260831142240 | 80 | 225 | 5.0 | 7.0 | 0.00 | 0.00 | 0.00 | 77 | 1019.4 |
| 20260831141739 | 80 | 232 | 4.0 | 7.0 | 0.00 | 0.00 | 0.00 | 78 | 1019.2 |
| 20260831141234 | 79 | 230 | 5.0 | 9.0 | 0.00 | 0.00 | 0.00 | 79 | 1019.3 |
| 20260831140734 | 79 | 227 | 5.0 | 8.0 | 0.00 | 0.00 | 0.00 | 78 | 1019.3 |
| 20260831140229 | 80 | 213 | 8.0 | 9.0 | 0.00 | 0.00 | 0.00 | 77 | 1019.2 |
| 20260831135726 | 80 | 231 | 6.0 | 10.0 | 0.00 | 0.00 | 0.00 | 78 | 1019.2 |
| 20260831135222 | 80 | 215 | 7.0 | 8.0 | 0.00 | 0.00 | 0.00 | 77 | 1019.2 |
| 20260831134718 | 80 | 248 | 7.0 | 9.0 | 0.00 | 0.00 | 0.00 | 77 | 1019.3 |
| 20260831134214 | 79 | 233 | 5.0 | 9.0 | 0.00 | 0.00 | 0.00 | 78 | 1019.1 |
| 20260831133713 | 78 | 224 | 7.0 | 7.0 | 0.00 | 0.00 | 0.00 | 79 | 1019.0 |
| 20260831133207 | 77 | 209 | 8.0 | 9.0 | 0.00 | 0.00 | 0.00 | 80 | 1019.1 |
| 20260831132703 | 77 | 238 | 6.0 | 9.0 | 0.00 | 0.00 | 0.00 | 81 | 1019.1 |
| 20260831132202 | 76 | 234 | 7.0 | 8.0 | 0.00 | 0.00 | 0.00 | 82 | 1018.9 |
| 20260831131657 | 76 | 212 | 7.0 | 9.0 | 0.00 | 0.00 | 0.00 | 82 | 1019.2 |
| 20260831131154 | 75 | 219 | 6.0 | 7.0 | 0.00 | 0.00 | 0.00 | 83 | 1019.1 |
| 20260831130649 | 75 | 214 | 7.0 | 7.0 | 0.00 | 0.00 | 0.00 | 84 | 1019.2 |
| 20260831130144 | 74 | 216 | 4.0 | 7.0 | 0.00 | 0.00 | 0.00 | 85 | 1019.0 |
| 20260831125642 | 74 | 223 | 4.0 | 6.0 | 0.00 | 0.00 | 0.00 | 86 | 1019.1 |
| 20260831125138 | 74 | 208 | 5.0 | 7.0 | 0.00 | 0.00 | 0.00 | 86 | 1018.9 |
| 20260831124634 | 74 | 218 | 5.0 | 6.0 | 0.00 | 0.00 | 0.00 | 86 | 1019.0 |
| 20260831124130 | 74 | 218 | 4.0 | 5.0 | 0.00 | 0.00 | 0.00 | 86 | 1019.0 |
| 20260831123629 | 73 | 224 | 5.0 | 6.0 | 0.00 | 0.00 | 0.00 | 86 | 1018.9 |
| 20260831123129 | 73 | 212 | 4.0 | 5.0 | 0.00 | 0.00 | 0.00 | 87 | 1018.8 |
| 20260831122628 | 73 | 211 | 2.0 | 3.0 | 0.00 | 0.00 | 0.00 | 87 | 1018.9 |
| 20260831122125 | 73 | 207 | 2.0 | 2.0 | 0.00 | 0.00 | 0.00 | 88 | 1018.9 |
| 20260831121623 | 73 | 214 | 2.0 | 2.0 | 0.00 | 0.00 | 0.00 | 88 | 1018.9 |
| 20260831121120 | 72 | 212 | 2.0 | 2.0 | 0.00 | 0.00 | 0.00 | 89 | 1019.0 |
| 20260831120615 | 72 | 213 | 1.0 | 2.0 | 0.00 | 0.00 | 0.00 | 90 | 1018.8 |
| 20260831120110 | 72 | 215 | 2.0 | 2.0 | 0.00 | 0.00 | 0.00 | 90 | 1018.9 |
| 20260831115606 | 72 | 223 | 2.0 | 2.0 | 0.00 | 0.00 | 0.00 | 90 | 1019.0 |
| 20260831115101 | 72 | 216 | 1.0 | 2.0 | 0.00 | 0.00 | 0.00 | 90 | 1018.9 |
| 20260831114600 | 71 | 217 | 2.0 | 2.0 | 0.00 | 0.00 | 0.00 | 91 | 1018.9 |
| 20260831114055 | 71 | 211 | 2.0 | 2.0 | 0.00 | 0.00 | 0.00 | 91 | 1018.8 |
| 20260831113554 | 71 | 216 | 1.0 | 2.0 | 0.00 | 0.00 | 0.00 | 91 | 1018.9 |
| 20260831113050 | 71 | 217 | 1.0 | 1.0 | 0.00 | 0.00 | 0.00 | 91 | 1018.9 |
| 20260831112549 | 71 | 218 | 2.0 | 2.0 | 0.00 | 0.00 | 0.00 | 91 | 1018.8 |
| 20260831112044 | 71 | 214 | 2.0 | 2.0 | 0.00 | 0.00 | 0.00 | 92 | 1018.9 |
| 20260831111540 | 71 | 219 | 2.0 | 2.0 | 0.00 | 0.00 | 0.00 | 92 | 1019.0 |
| 20260831111036 | 71 | 223 | 1.0 | 1.0 | 0.00 | 0.00 | 0.00 | 91 | 1018.9 |
| 20260831110531 | 71 | 227 | 1.0 | 1.0 | 0.00 | 0.00 | 0.00 | 91 | 1018.8 |
| 20260831110026 | 71 | 228 | 1.0 | 1.0 | 0.00 | 0.00 | 0.00 | 91 | 1018.6 |
| 20260831105525 | 71 | 231 | 1.0 | 1.0 | 0.00 | 0.00 | 0.00 | 91 | 1018.8 |
| 20260831105020 | 71 | 217 | 2.0 | 3.0 | 0.00 | 0.00 | 0.00 | 91 | 1018.7 |
| 20260831104517 | 71 | 219 | 2.0 | 2.0 | 0.00 | 0.00 | 0.00 | 90 | 1018.7 |
| 20260831104012 | 71 | 215 | 2.0 | 2.0 | 0.00 | 0.00 | 0.00 | 89 | 1018.6 |
| 20260831103507 | 71 | 214 | 3.0 | 3.0 | 0.00 | 0.00 | 0.00 | 89 | 1018.6 |
| 20260831103003 | 71 | 227 | 1.0 | 1.0 | 0.00 | 0.00 | 0.00 | 89 | 1018.7 |
| 20260831102457 | 72 | 220 | 0.0 | 0.0 | 0.00 | 0.00 | 0.00 | 89 | 1018.4 |
| 20260831101952 | 72 | 228 | 0.0 | 1.0 | 0.00 | 0.00 | 0.00 | 89 | 1018.7 |
| 20260831101447 | 72 | 229 | 1.0 | 1.0 | 0.00 | 0.00 | 0.00 | 89 | 1018.8 |
| 20260831100943 | 72 | 226 | 0.0 | 1.0 | 0.00 | 0.00 | 0.00 | 88 | 1018.7 |
| 20260831100439 | 72 | 240 | 2.0 | 3.0 | 0.00 | 0.00 | 0.00 | 88 | 1018.7 |
| 20260831095934 | 72 | 230 | 2.0 | 3.0 | 0.00 | 0.00 | 0.00 | 88 | 1018.7 |
| 20260831095433 | 72 | 239 | 3.0 | 3.0 | 0.00 | 0.00 | 0.00 | 88 | 1018.6 |
| 20260831094928 | 72 | 233 | 2.0 | 3.0 | 0.00 | 0.00 | 0.00 | 88 | 1018.5 |
| 20260831094424 | 73 | 235 | 3.0 | 3.0 | 0.00 | 0.00 | 0.00 | 87 | 1018.4 |
| 20260831093920 | 73 | 235 | 2.0 | 3.0 | 0.00 | 0.00 | 0.00 | 85 | 1018.3 |
| 20260831093414 | 74 | 243 | 3.0 | 5.0 | 0.00 | 0.00 | 0.00 | 83 | 1018.4 |
| 20260831092911 | 74 | 220 | 2.0 | 3.0 | 0.00 | 0.00 | 0.00 | 83 | 1018.0 |
| 20260831092407 | 74 | 213 | 5.0 | 6.0 | 0.00 | 0.00 | 0.00 | 83 | 1018.0 |
| 20260831091902 | 74 | 216 | 6.0 | 8.0 | 0.00 | 0.00 | 0.00 | 83 | 1018.1 |
| 20260831091357 | 74 | 212 | 6.0 | 9.0 | 0.00 | 0.00 | 0.00 | 82 | 1018.1 |
| 20260831090852 | 74 | 230 | 7.0 | 10.0 | 0.00 | 0.00 | 0.00 | 83 | 1018.2 |
| 20260831090343 | 73 | 221 | 7.0 | 8.0 | 0.00 | 0.00 | 0.00 | 85 | 1017.8 |
| 20260831085839 | 72 | 200 | 5.0 | 6.0 | 0.00 | 0.00 | 0.00 | 88 | 1018.0 |
| 20260831085332 | 72 | 223 | 4.0 | 5.0 | 0.00 | 0.00 | 0.00 | 89 | 1018.1 |
| 20260831084827 | 72 | 231 | 4.0 | 6.0 | 0.00 | 0.00 | 0.00 | 90 | 1018.1 |
| 20260831084323 | 72 | 217 | 3.0 | 6.0 | 0.00 | 0.00 | 0.00 | 90 | 1018.4 |
| 20260831083819 | 72 | 222 | 7.0 | 13.0 | 0.00 | 0.00 | 0.00 | 89 | 1018.6 |
| 20260831083315 | 72 | 215 | 8.0 | 9.0 | 0.00 | 0.00 | 0.00 | 91 | 1018.4 |
| 20260831082813 | 71 | 211 | 7.0 | 8.0 | 0.00 | 0.00 | 0.00 | 92 | 1018.7 |
| 20260831082308 | 71 | 225 | 5.0 | 7.0 | 0.00 | 0.00 | 0.00 | 93 | 1018.4 |
| 20260831081804 | 71 | 220 | 3.0 | 5.0 | 0.00 | 0.00 | 0.00 | 94 | 1018.7 |
| 20260831081259 | 71 | 224 | 2.0 | 3.0 | 0.00 | 0.00 | 0.00 | 94 | 1018.7 |
| 20260831080754 | 71 | 235 | 3.0 | 6.0 | 0.00 | 0.00 | 0.00 | 93 | 1018.8 |
| 20260831080249 | 71 | 216 | 4.0 | 6.0 | 0.00 | 0.00 | 0.00 | 94 | 1018.7 |
| 20260831075746 | 71 | 217 | 4.0 | 5.0 | 0.00 | 0.00 | 0.00 | 94 | 1018.8 |
| 20260831075241 | 71 | 238 | 2.0 | 3.0 | 0.00 | 0.00 | 0.00 | 94 | 1018.9 |
| 20260831074740 | 71 | 230 | 2.0 | 2.0 | 0.00 | 0.00 | 0.00 | 94 | 1018.9 |
| 20260831074234 | 71 | 228 | 2.0 | 3.0 | 0.00 | 0.00 | 0.00 | 94 | 1018.9 |
| 20260831073730 | 71 | 228 | 2.0 | 2.0 | 0.00 | 0.00 | 0.00 | 94 | 1018.8 |
| 20260831073229 | 71 | 222 | 2.0 | 2.0 | 0.00 | 0.00 | 0.00 | 94 | 1018.9 |
| 20260831072724 | 72 | 226 | 3.0 | 3.0 | 0.00 | 0.00 | 0.00 | 93 | 1018.9 |
| 20260831072220 | 72 | 233 | 3.0 | 5.0 | 0.00 | 0.00 | 0.00 | 93 | 1018.8 |
| 20260831071715 | 72 | 220 | 3.0 | 3.0 | 0.00 | 0.00 | 0.00 | 93 | 1019.0 |
| 20260831071215 | 72 | 222 | 3.0 | 5.0 | 0.00 | 0.00 | 0.00 | 92 | 1018.9 |
| 20260831070709 | 72 | 218 | 4.0 | 5.0 | 0.00 | 0.00 | 0.00 | 92 | 1019.0 |
| 20260831070203 | 72 | 227 | 4.0 | 5.0 | 0.00 | 0.00 | 0.00 | 92 | 1019.0 |
| 20260831065702 | 72 | 227 | 3.0 | 3.0 | 0.00 | 0.00 | 0.00 | 92 | 1018.9 |
| 20260831065201 | 72 | 225 | 3.0 | 5.0 | 0.00 | 0.00 | 0.00 | 92 | 1019.1 |
| 20260831064656 | 72 | 223 | 3.0 | 5.0 | 0.00 | 0.00 | 0.00 | 92 | 1019.1 |
| 20260831064151 | 72 | 207 | 4.0 | 6.0 | 0.00 | 0.00 | 0.00 | 92 | 1019.0 |
| 20260831063647 | 72 | 231 | 3.0 | 5.0 | 0.00 | 0.00 | 0.00 | 92 | 1019.0 |
| 20260831063142 | 72 | 225 | 3.0 | 3.0 | 0.00 | 0.00 | 0.00 | 92 | 1019.1 |
| 20260831062643 | 72 | 218 | 3.0 | 3.0 | 0.00 | 0.00 | 0.00 | 93 | 1018.9 |
| 20260831062142 | 72 | 222 | 3.0 | 5.0 | 0.00 | 0.00 | 0.00 | 93 | 1019.0 |
| 20260831061640 | 72 | 211 | 4.0 | 5.0 | 0.00 | 0.00 | 0.00 | 93 | 1019.0 |
| 20260831061136 | 71 | 214 | 3.0 | 3.0 | 0.00 | 0.00 | 0.00 | 94 | 1018.9 |
| 20260831060632 | 71 | 219 | 2.0 | 2.0 | 0.00 | 0.00 | 0.00 | 94 | 1018.9 |
| 20260831060126 | 71 | 217 | 2.0 | 2.0 | 0.00 | 0.00 | 0.00 | 94 | 1019.1 |
| 20260831055625 | 71 | 213 | 2.0 | 2.0 | 0.00 | 0.00 | 0.00 | 94 | 1019.1 |
| 20260831055121 | 71 | 217 | 2.0 | 3.0 | 0.00 | 0.00 | 0.00 | 94 | 1019.2 |
| 20260831054621 | 71 | 216 | 2.0 | 3.0 | 0.00 | 0.00 | 0.00 | 94 | 1019.2 |
| 20260831054115 | 71 | 219 | 2.0 | 3.0 | 0.00 | 0.00 | 0.00 | 95 | 1019.1 |
| 20260831053614 | 71 | 215 | 2.0 | 3.0 | 0.00 | 0.00 | 0.00 | 94 | 1019.0 |
| 20260831053114 | 71 | 215 | 2.0 | 2.0 | 0.00 | 0.00 | 0.00 | 94 | 1019.3 |
| 20260831052612 | 71 | 215 | 2.0 | 2.0 | 0.00 | 0.00 | 0.00 | 94 | 1019.1 |
| 20260831052107 | 71 | 217 | 1.0 | 1.0 | 0.00 | 0.00 | 0.00 | 94 | 1019.3 |
| 20260831051605 | 71 | 215 | 1.0 | 1.0 | 0.00 | 0.00 | 0.00 | 94 | 1019.3 |
| 20260831051104 | 71 | 223 | 0.0 | 0.0 | 0.00 | 0.00 | 0.00 | 94 | 1019.6 |
| 20260831050604 | 71 | 221 | 0.0 | 0.0 | 0.00 | 0.00 | 0.00 | 94 | 1019.3 |
| 20260831045557 | 71 | 222 | 0.0 | 1.0 | 0.00 | 0.00 | 0.00 | 94 | 1019.3 |
| 20260831045052 | 71 | 221 | 1.0 | 1.0 | 0.00 | 0.00 | 0.00 | 94 | 1019.5 |
| 20260831044548 | 71 | 215 | 1.0 | 1.0 | 0.00 | 0.00 | 0.00 | 94 | 1019.5 |
| 20260831044043 | 71 | 219 | 1.0 | 2.0 | 0.00 | 0.00 | 0.00 | 94 | 1019.6 |
| 20260831043543 | 71 | 233 | 1.0 | 1.0 | 0.00 | 0.00 | 0.00 | 92 | 1019.6 |
| 20260831043033 | 72 | 213 | 3.0 | 3.0 | 0.00 | 0.00 | 0.00 | 92 | 1019.6 |
| 20260831042532 | 72 | 215 | 3.0 | 3.0 | 0.00 | 0.00 | 0.00 | 92 | 1019.5 |
| 20260831042027 | 72 | 226 | 3.0 | 5.0 | 0.00 | 0.00 | 0.00 | 92 | 1019.5 |
| 20260831041521 | 72 | 216 | 3.0 | 3.0 | 0.00 | 0.00 | 0.00 | 92 | 1019.4 |
| 20260831041015 | 72 | 217 | 2.0 | 3.0 | 0.00 | 0.00 | 0.00 | 92 | 1019.2 |
| 20260831040510 | 72 | 211 | 3.0 | 3.0 | 0.00 | 0.00 | 0.00 | 92 | 1019.5 |
| 20260831040009 | 72 | 211 | 3.0 | 3.0 | 0.00 | 0.04 | 0.04 | 91 | 1019.2 |
| 20260831035502 | 72 | 205 | 2.0 | 2.0 | 0.00 | 0.04 | 0.04 | 91 | 1019.3 |
| 20260831034957 | 72 | 214 | 3.0 | 3.0 | 0.00 | 0.04 | 0.04 | 91 | 1019.3 |
| 20260831034451 | 72 | 211 | 4.0 | 5.0 | 0.00 | 0.04 | 0.04 | 91 | 1019.2 |
| 20260831033947 | 72 | 213 | 3.0 | 5.0 | 0.00 | 0.04 | 0.04 | 91 | 1019.2 |
| 20260831033442 | 72 | 203 | 4.0 | 7.0 | 0.00 | 0.04 | 0.04 | 91 | 1019.1 |
| 20260831032938 | 71 | 208 | 4.0 | 5.0 | 0.00 | 0.04 | 0.04 | 92 | 1019.2 |
| 20260831032438 | 71 | 198 | 4.0 | 5.0 | 0.00 | 0.04 | 0.04 | 92 | 1019.0 |
| 20260831031933 | 71 | 194 | 4.0 | 5.0 | 0.00 | 0.04 | 0.04 | 91 | 1019.2 |
| 20260831031432 | 71 | 212 | 5.0 | 7.0 | 0.00 | 0.04 | 0.04 | 92 | 1019.3 |
| 20260831030931 | 71 | 220 | 4.0 | 5.0 | 0.00 | 0.04 | 0.04 | 92 | 1019.3 |
| 20260831030431 | 71 | 213 | 4.0 | 5.0 | 0.00 | 0.04 | 0.04 | 92 | 1019.2 |
| 20260831025929 | 71 | 212 | 3.0 | 5.0 | 0.00 | 0.04 | 0.04 | 92 | 1019.3 |
| 20260831025429 | 71 | 206 | 3.0 | 5.0 | 0.00 | 0.04 | 0.04 | 92 | 1019.5 |
| 20260831024925 | 71 | 211 | 2.0 | 5.0 | 0.00 | 0.04 | 0.04 | 92 | 1019.5 |
| 20260831024424 | 71 | 208 | 3.0 | 3.0 | 0.00 | 0.04 | 0.04 | 92 | 1019.5 |
| 20260831023919 | 71 | 216 | 3.0 | 3.0 | 0.00 | 0.04 | 0.04 | 92 | 1019.5 |
| 20260831023417 | 70 | 211 | 2.0 | 2.0 | 0.00 | 0.04 | 0.04 | 92 | 1019.5 |
| 20260831022913 | 70 | 207 | 1.0 | 2.0 | 0.00 | 0.04 | 0.04 | 92 | 1019.5 |
| 20260831022411 | 70 | 214 | 2.0 | 2.0 | 0.00 | 0.04 | 0.04 | 92 | 1019.5 |
| 20260831021906 | 70 | 216 | 1.0 | 1.0 | 0.00 | 0.04 | 0.04 | 92 | 1019.3 |
| 20260831021405 | 71 | 224 | 1.0 | 2.0 | 0.00 | 0.04 | 0.04 | 91 | 1019.3 |
| 20260831020902 | 71 | 207 | 2.0 | 2.0 | 0.00 | 0.04 | 0.04 | 90 | 1019.3 |
| 20260831020401 | 71 | 204 | 2.0 | 2.0 | 0.00 | 0.04 | 0.04 | 90 | 1019.4 |
| 20260831015856 | 72 | 203 | 2.0 | 3.0 | 0.00 | 0.04 | 0.04 | 89 | 1019.3 |
| 20260831015352 | 72 | 181 | 3.0 | 3.0 | 0.00 | 0.04 | 0.04 | 89 | 1019.2 |
| 20260831014847 | 72 | 214 | 1.0 | 2.0 | 0.00 | 0.04 | 0.04 | 88 | 1019.3 |
| 20260831014341 | 72 | 202 | 0.0 | 2.0 | 0.00 | 0.04 | 0.04 | 88 | 1019.5 |
| 20260831013837 | 72 | 199 | 2.0 | 3.0 | 0.00 | 0.04 | 0.04 | 88 | 1019.3 |
| 20260831013332 | 72 | 204 | 1.0 | 2.0 | 0.00 | 0.04 | 0.04 | 88 | 1019.2 |
| 20260831012827 | 72 | 199 | 2.0 | 2.0 | 0.00 | 0.04 | 0.04 | 87 | 1019.1 |
| 20260831012323 | 72 | 182 | 2.0 | 2.0 | 0.00 | 0.04 | 0.04 | 87 | 1019.1 |
| 20260831011822 | 72 | 216 | 1.0 | 2.0 | 0.00 | 0.04 | 0.04 | 87 | 1019.1 |
| 20260831011317 | 72 | 209 | 1.0 | 1.0 | 0.00 | 0.04 | 0.04 | 87 | 1019.2 |
| 20260831010813 | 73 | 185 | 1.0 | 2.0 | 0.00 | 0.04 | 0.04 | 86 | 1019.1 |
| 20260831010312 | 73 | 214 | 0.0 | 3.0 | 0.00 | 0.04 | 0.04 | 86 | 1019.1 |
| 20260831005808 | 73 | 193 | 3.0 | 3.0 | 0.00 | 0.04 | 0.04 | 86 | 1019.3 |
| 20260831005306 | 73 | 221 | 0.0 | 3.0 | 0.00 | 0.04 | 0.04 | 85 | 1019.0 |
| 20260831004758 | 73 | 194 | 2.0 | 2.0 | 0.00 | 0.04 | 0.04 | 85 | 1019.0 |
| 20260831004254 | 73 | 221 | 2.0 | 3.0 | 0.00 | 0.04 | 0.04 | 85 | 1019.2 |
| 20260831003750 | 73 | 228 | 0.0 | 3.0 | 0.00 | 0.04 | 0.04 | 85 | 1019.4 |
| 20260831003245 | 73 | 188 | 1.0 | 2.0 | 0.00 | 0.04 | 0.04 | 85 | 1019.4 |
| 20260831002744 | 73 | 172 | 2.0 | 5.0 | 0.00 | 0.04 | 0.04 | 85 | 1019.3 |
| 20260831002239 | 73 | 207 | 1.0 | 2.0 | 0.00 | 0.04 | 0.04 | 86 | 1019.4 |
| 20260831001735 | 72 | 209 | 1.0 | 2.0 | 0.00 | 0.04 | 0.04 | 87 | 1019.5 |
| 20260831001230 | 72 | 216 | 0.0 | 0.0 | 0.00 | 0.04 | 0.04 | 87 | 1019.4 |
| 20260831000727 | 72 | 214 | 0.0 | 1.0 | 0.00 | 0.04 | 0.04 | 87 | 1019.4 |
| 20260831000222 | 73 | 213 | 1.0 | 1.0 | 0.00 | 0.04 | 0.04 | 86 | 1019.6 |
| 20260830235720 | 72 | 201 | 2.0 | 2.0 | 0.00 | 0.04 | 0.04 | 86 | 1019.6 |
| 20260830235216 | 72 | 217 | 0.0 | 0.0 | 0.00 | 0.04 | 0.04 | 87 | 1019.5 |
| 20260830234710 | 72 | 207 | 0.0 | 0.0 | 0.00 | 0.04 | 0.04 | 87 | 1019.6 |
| 20260830234207 | 72 | 215 | 1.0 | 1.0 | 0.00 | 0.04 | 0.04 | 87 | 1019.5 |
| 20260830233702 | 72 | 213 | 0.0 | 0.0 | 0.00 | 0.04 | 0.04 | 87 | 1019.6 |
| 20260830233157 | 72 | 220 | 0.0 | 0.0 | 0.00 | 0.04 | 0.04 | 87 | 1019.6 |
| 20260830232653 | 72 | 212 | 0.0 | 0.0 | 0.00 | 0.04 | 0.04 | 88 | 1019.6 |
| 20260830232148 | 72 | 207 | 0.0 | 1.0 | 0.00 | 0.04 | 0.04 | 88 | 1019.8 |
| 20260830231645 | 72 | 209 | 0.0 | 0.0 | 0.00 | 0.04 | 0.04 | 89 | 1019.8 |
| 20260830231144 | 72 | 201 | 1.0 | 1.0 | 0.00 | 0.04 | 0.04 | 89 | 1019.8 |
| 20260830230639 | 72 | 206 | 1.0 | 1.0 | 0.00 | 0.04 | 0.04 | 88 | 1020.1 |
| 20260830230139 | 72 | 216 | 1.0 | 2.0 | 0.00 | 0.04 | 0.04 | 86 | 1020.2 |
| 20260830225634 | 72 | 219 | 1.0 | 1.0 | 0.00 | 0.04 | 0.04 | 87 | 1020.1 |
| 20260830225129 | 71 | 212 | 1.0 | 2.0 | 0.00 | 0.04 | 0.04 | 84 | 1020.0 |
| 20260830224628 | 71 | 252 | 0.0 | 1.0 | 0.07 | 0.04 | 0.04 | 87 | 1020.0 |
| 20260830224124 | 73 | 198 | 1.0 | 3.0 | 0.14 | 0.04 | 0.04 | 89 | 1020.3 |
| 20260830223621 | 73 | 317 | 3.0 | 3.0 | 0.07 | 0.02 | 0.02 | 88 | 1020.5 |
| 20260830223120 | 74 | 253 | 2.0 | 2.0 | 0.00 | 0.01 | 0.01 | 87 | 1020.6 |